Time,TemperatureF,DewpointF,PressureIn,WindDirection,WindDirectionDegrees,WindSpeedMPH,WindSpeedGustMPH,Humidity,HourlyPrecipIn,Conditions,Clouds,dailyrainin,SoftwareType,DateUTC
2013-06-02 00:25:00,72.9,66.7,28.88,NW,315,0.0,0.0,81,0.00,,---,0.00,VWS V14.00,2013-06-02 04:25:00,
2013-06-02 00:28:00,72.9,66.7,28.88,NW,315,0.0,0.0,81,0.00,,---,0.00,VWS V14.00,2013-06-02 04:28:00,
2013-06-02 00:34:00,72.7,66.5,28.88,NW,315,0.0,0.0,81,0.00,,---,0.00,VWS V14.00,2013-06-02 04:34:00,
2013-06-02 00:40:00,72.7,66.5,28.85,NW,315,0.0,0.0,81,0.00,,---,0.00,VWS V14.00,2013-06-02 04:40:00,
2013-06-02 00:46:00,72.7,66.5,28.85,NW,315,0.0,0.0,81,0.00,,---,0.00,VWS V14.00,2013-06-02 04:46:00,
2013-06-02 00:52:00,72.7,66.5,28.85,NW,315,0.0,0.0,81,0.00,,---,0.00,VWS V14.00,2013-06-02 04:52:00,
2013-06-02 00:59:00,72.5,66.7,28.85,NW,315,0.0,0.0,82,0.00,,---,0.00,VWS V14.00,2013-06-02 04:59:00,
2013-06-02 01:05:00,72.5,66.7,28.85,NW,315,0.0,0.0,82,0.00,,---,0.00,VWS V14.00,2013-06-02 05:05:00,
2013-06-02 01:08:00,72.3,66.5,28.85,NW,315,0.0,0.0,82,0.00,,---,0.00,VWS V14.00,2013-06-02 05:08:00,
2013-06-02 01:14:00,72.1,66.3,28.85,NW,315,0.0,0.0,82,0.00,,---,0.00,VWS V14.00,2013-06-02 05:14:00,
2013-06-02 01:20:00,72.1,66.7,28.85,NW,315,0.0,0.0,83,0.00,,---,0.00,VWS V14.00,2013-06-02 05:20:00,
2013-06-02 01:26:00,72.1,66.7,28.85,NW,315,0.0,0.0,83,0.00,,---,0.00,VWS V14.00,2013-06-02 05:26:00,
2013-06-02 01:32:00,72.1,66.7,28.85,NW,315,0.0,0.0,83,0.00,,---,0.00,VWS V14.00,2013-06-02 05:32:00,
2013-06-02 01:38:00,72.1,66.7,28.85,NW,315,0.0,0.0,83,0.00,,---,0.00,VWS V14.00,2013-06-02 05:38:00,
2013-06-02 01:44:00,72.0,66.5,28.85,NW,315,0.0,0.0,83,0.00,,---,0.00,VWS V14.00,2013-06-02 05:44:00,
2013-06-02 01:50:00,72.0,66.9,28.85,NW,315,0.0,0.0,84,0.00,,---,0.00,VWS V14.00,2013-06-02 05:50:00,
2013-06-02 01:56:00,72.0,66.9,28.85,NW,315,0.0,0.0,84,0.00,,---,0.00,VWS V14.00,2013-06-02 05:56:00,
2013-06-02 02:02:00,72.0,66.9,28.85,NW,315,0.0,0.0,84,0.00,,---,0.00,VWS V14.00,2013-06-02 06:02:00,
2013-06-02 02:08:00,72.1,67.0,28.85,NW,315,0.0,0.0,84,0.00,,---,0.00,VWS V14.00,2013-06-02 06:08:00,
2013-06-02 02:14:00,72.1,67.0,28.85,NW,315,0.0,0.0,84,0.00,,---,0.00,VWS V14.00,2013-06-02 06:14:00,
2013-06-02 02:20:00,72.0,66.9,28.85,NW,315,0.0,0.0,84,0.00,,---,0.00,VWS V14.00,2013-06-02 06:20:00,
2013-06-02 02:26:00,72.0,66.9,28.88,NW,315,0.0,0.0,84,0.00,,---,0.00,VWS V14.00,2013-06-02 06:26:00,
2013-06-02 02:32:00,72.0,66.9,28.88,NW,315,0.0,0.0,84,0.00,,---,0.00,VWS V14.00,2013-06-02 06:32:00,
2013-06-02 02:38:00,71.8,66.7,28.88,NW,315,0.0,0.0,84,0.00,,---,0.00,VWS V14.00,2013-06-02 06:38:00,
2013-06-02 02:44:00,71.8,66.7,28.88,NW,315,0.0,0.0,84,0.00,,---,0.00,VWS V14.00,2013-06-02 06:44:00,
2013-06-02 02:50:00,71.8,66.7,28.88,NW,315,0.0,0.0,84,0.00,,---,0.00,VWS V14.00,2013-06-02 06:50:00,
2013-06-02 02:56:00,71.8,67.0,28.88,NW,315,0.0,0.0,85,0.00,,---,0.00,VWS V14.00,2013-06-02 06:56:00,
2013-06-02 03:02:00,71.8,67.0,28.88,NW,315,0.0,0.0,85,0.00,,---,0.00,VWS V14.00,2013-06-02 07:02:00,
2013-06-02 03:08:00,71.8,67.0,28.88,NW,315,0.0,0.0,85,0.00,,---,0.00,VWS V14.00,2013-06-02 07:08:00,
2013-06-02 03:14:00,71.8,67.0,28.88,NW,315,0.0,0.0,85,0.00,,---,0.00,VWS V14.00,2013-06-02 07:14:00,
2013-06-02 03:20:00,71.8,67.0,28.88,NW,315,0.0,0.0,85,0.00,,---,0.00,VWS V14.00,2013-06-02 07:20:00,
2013-06-02 03:26:00,71.6,67.2,28.85,NW,315,0.0,0.0,86,0.00,,---,0.00,VWS V14.00,2013-06-02 07:26:00,
2013-06-02 03:32:00,71.8,67.4,28.85,NW,315,0.0,0.9,86,0.00,,---,0.00,VWS V14.00,2013-06-02 07:32:00,
2013-06-02 03:38:00,71.6,67.2,28.85,NW,315,0.0,0.9,86,0.00,,---,0.00,VWS V14.00,2013-06-02 07:38:00,
2013-06-02 03:44:00,71.6,67.5,28.85,NW,315,0.0,0.9,87,0.00,,---,0.00,VWS V14.00,2013-06-02 07:44:00,
2013-06-02 03:50:00,71.6,67.5,28.85,NW,315,0.0,0.9,87,0.00,,---,0.00,VWS V14.00,2013-06-02 07:50:00,
2013-06-02 03:56:00,71.6,67.5,28.85,NW,315,0.0,0.9,87,0.00,,---,0.00,VWS V14.00,2013-06-02 07:56:00,
2013-06-02 04:02:00,71.4,67.3,28.85,NW,315,0.0,0.0,87,0.00,,---,0.00,VWS V14.00,2013-06-02 08:02:00,
2013-06-02 04:08:00,71.4,67.7,28.85,NW,315,0.0,0.0,88,0.00,,---,0.00,VWS V14.00,2013-06-02 08:08:00,
2013-06-02 04:14:00,71.2,67.5,28.85,SE,135,0.0,0.0,88,0.00,,---,0.00,VWS V14.00,2013-06-02 08:14:00,
2013-06-02 04:20:00,71.4,67.7,28.85,WSW,248,0.0,0.0,88,0.00,,---,0.00,VWS V14.00,2013-06-02 08:20:00,
2013-06-02 04:26:00,71.4,67.7,28.85,WSW,248,0.0,0.0,88,0.00,,---,0.00,VWS V14.00,2013-06-02 08:26:00,
2013-06-02 04:32:00,71.2,67.5,28.85,West,270,0.0,0.0,88,0.00,,---,0.00,VWS V14.00,2013-06-02 08:32:00,
2013-06-02 04:38:00,71.2,67.5,28.85,West,270,0.0,0.0,88,0.00,,---,0.00,VWS V14.00,2013-06-02 08:38:00,
2013-06-02 04:44:00,71.2,67.5,28.85,West,270,0.0,0.0,88,0.04,,---,0.04,VWS V14.00,2013-06-02 08:44:00,
2013-06-02 04:50:00,71.2,67.5,28.85,West,270,0.0,0.0,88,0.04,,---,0.04,VWS V14.00,2013-06-02 08:50:00,
2013-06-02 04:56:00,71.2,67.5,28.85,West,270,0.0,0.0,88,0.04,,---,0.04,VWS V14.00,2013-06-02 08:56:00,
2013-06-02 05:02:00,71.2,67.8,28.85,West,270,0.0,0.0,89,0.04,,---,0.04,VWS V14.00,2013-06-02 09:02:00,
2013-06-02 05:08:00,71.1,67.7,28.85,West,270,0.0,0.0,89,0.04,,---,0.04,VWS V14.00,2013-06-02 09:08:00,
2013-06-02 05:14:00,71.1,67.3,28.85,West,270,0.0,0.0,88,0.04,,---,0.04,VWS V14.00,2013-06-02 09:14:00,
2013-06-02 05:20:00,71.1,67.3,28.85,West,270,0.0,0.0,88,0.04,,---,0.04,VWS V14.00,2013-06-02 09:20:00,
2013-06-02 05:26:00,71.1,67.3,28.85,West,270,0.0,0.0,88,0.04,,---,0.04,VWS V14.00,2013-06-02 09:26:00,
2013-06-02 05:32:00,71.1,67.7,28.85,West,270,0.0,0.0,89,0.04,,---,0.04,VWS V14.00,2013-06-02 09:32:00,
2013-06-02 05:38:00,71.1,67.7,28.85,West,270,0.0,0.0,89,0.04,,---,0.04,VWS V14.00,2013-06-02 09:38:00,
2013-06-02 05:44:00,70.9,67.5,28.85,West,270,0.0,0.0,89,0.04,,---,0.04,VWS V14.00,2013-06-02 09:44:00,
2013-06-02 05:50:00,70.9,67.5,28.85,West,270,0.0,0.0,89,0.04,,---,0.04,VWS V14.00,2013-06-02 09:50:00,
2013-06-02 05:56:00,70.9,67.5,28.85,West,270,0.0,0.0,89,0.04,,---,0.04,VWS V14.00,2013-06-02 09:56:00,
2013-06-02 06:02:00,70.9,67.8,28.85,West,270,0.0,0.0,90,0.00,,---,0.04,VWS V14.00,2013-06-02 10:02:00,
2013-06-02 06:08:00,70.9,67.5,28.85,West,270,0.0,0.0,89,0.00,,---,0.04,VWS V14.00,2013-06-02 10:08:00,
2013-06-02 06:14:00,70.9,67.8,28.85,West,270,0.0,0.0,90,0.00,,---,0.04,VWS V14.00,2013-06-02 10:14:00,
2013-06-02 06:20:00,70.9,67.8,28.85,West,270,0.0,0.0,90,0.00,,---,0.04,VWS V14.00,2013-06-02 10:20:00,
2013-06-02 06:26:00,70.9,67.8,28.85,West,270,0.0,0.0,90,0.00,,---,0.04,VWS V14.00,2013-06-02 10:26:00,
2013-06-02 06:32:00,70.9,67.8,28.85,West,270,0.0,0.0,90,0.00,,---,0.04,VWS V14.00,2013-06-02 10:32:00,
2013-06-02 06:39:00,70.9,67.8,28.85,West,270,0.0,0.0,90,0.00,,---,0.04,VWS V14.00,2013-06-02 10:39:00,
2013-06-02 06:45:00,70.9,67.8,28.85,West,270,0.0,0.0,90,0.00,,---,0.04,VWS V14.00,2013-06-02 10:45:00,
2013-06-02 06:51:00,70.9,67.8,28.85,West,270,0.0,0.0,90,0.00,,---,0.04,VWS V14.00,2013-06-02 10:51:00,
2013-06-02 06:57:00,70.9,67.8,28.85,West,270,0.0,0.0,90,0.00,,---,0.04,VWS V14.00,2013-06-02 10:57:00,
2013-06-02 07:03:00,70.9,67.8,28.85,West,270,0.0,0.0,90,0.00,,---,0.04,VWS V14.00,2013-06-02 11:03:00,
2013-06-02 07:09:00,70.9,67.8,28.85,West,270,0.0,0.0,90,0.00,,---,0.04,VWS V14.00,2013-06-02 11:09:00,
2013-06-02 07:15:00,70.9,67.8,28.85,West,270,0.0,0.0,90,0.00,,---,0.04,VWS V14.00,2013-06-02 11:15:00,
2013-06-02 07:21:00,70.9,67.8,28.85,West,270,0.0,0.0,90,0.00,,---,0.04,VWS V14.00,2013-06-02 11:21:00,
2013-06-02 07:27:00,70.9,68.1,28.85,West,270,0.0,0.0,91,0.00,,---,0.04,VWS V14.00,2013-06-02 11:27:00,
2013-06-02 07:33:00,70.9,67.8,28.85,West,270,0.0,0.0,90,0.00,,---,0.04,VWS V14.00,2013-06-02 11:33:00,
2013-06-02 07:39:00,71.1,68.3,28.85,West,270,0.0,0.0,91,0.00,,---,0.04,VWS V14.00,2013-06-02 11:39:00,
2013-06-02 07:45:00,71.1,68.3,28.85,West,270,0.0,0.0,91,0.00,,---,0.04,VWS V14.00,2013-06-02 11:45:00,
2013-06-02 07:51:00,71.1,68.3,28.85,West,270,0.0,0.0,91,0.00,,---,0.04,VWS V14.00,2013-06-02 11:51:00,
2013-06-02 07:57:00,71.1,68.3,28.85,West,270,0.0,0.0,91,0.00,,---,0.04,VWS V14.00,2013-06-02 11:57:00,
2013-06-02 08:03:00,71.1,68.3,28.85,West,270,0.0,0.0,91,0.00,,---,0.04,VWS V14.00,2013-06-02 12:03:00,
2013-06-02 08:09:00,71.2,68.5,28.85,West,270,0.0,0.0,91,0.00,,---,0.04,VWS V14.00,2013-06-02 12:09:00,
2013-06-02 08:15:00,71.2,68.5,28.85,West,270,0.0,0.0,91,0.00,,---,0.04,VWS V14.00,2013-06-02 12:15:00,
2013-06-02 08:21:00,71.2,68.5,28.85,West,270,0.0,0.0,91,0.00,,---,0.04,VWS V14.00,2013-06-02 12:21:00,
2013-06-02 08:27:00,71.2,68.5,28.85,West,270,0.0,0.0,91,0.00,,---,0.04,VWS V14.00,2013-06-02 12:27:00,
2013-06-02 08:33:00,71.2,68.5,28.85,West,270,0.0,0.0,91,0.00,,---,0.04,VWS V14.00,2013-06-02 12:33:00,
2013-06-02 08:39:00,71.2,68.5,28.85,West,270,0.0,0.0,91,0.00,,---,0.04,VWS V14.00,2013-06-02 12:39:00,
2013-06-02 08:45:00,71.4,68.7,28.85,West,270,0.0,0.0,91,0.00,,---,0.04,VWS V14.00,2013-06-02 12:45:00,
2013-06-02 08:51:00,71.4,68.7,28.85,West,270,0.0,0.0,91,0.00,,---,0.04,VWS V14.00,2013-06-02 12:51:00,
2013-06-02 08:57:00,71.4,68.7,28.85,West,270,0.0,0.0,91,0.00,,---,0.04,VWS V14.00,2013-06-02 12:57:00,
2013-06-02 09:03:00,71.4,68.7,28.85,West,270,0.0,0.0,91,0.00,,---,0.04,VWS V14.00,2013-06-02 13:03:00,
2013-06-02 09:09:00,71.4,68.7,28.85,West,270,0.0,0.0,91,0.00,,---,0.04,VWS V14.00,2013-06-02 13:09:00,
2013-06-02 09:15:00,71.6,68.5,28.85,West,270,0.0,0.0,90,0.00,,---,0.04,VWS V14.00,2013-06-02 13:15:00,
2013-06-02 09:21:00,71.6,68.5,28.85,West,270,0.0,0.0,90,0.00,,---,0.04,VWS V14.00,2013-06-02 13:21:00,
2013-06-02 09:27:00,71.6,68.8,28.85,West,270,0.0,0.0,91,0.00,,---,0.04,VWS V14.00,2013-06-02 13:27:00,
2013-06-02 09:33:00,71.8,69.0,28.85,West,270,0.0,0.0,91,0.00,,---,0.04,VWS V14.00,2013-06-02 13:33:00,
2013-06-02 09:39:00,72.0,68.9,28.85,West,270,0.0,0.0,90,0.00,,---,0.04,VWS V14.00,2013-06-02 13:39:00,
2013-06-02 09:45:00,72.1,69.1,28.85,West,270,0.0,0.0,90,0.00,,---,0.04,VWS V14.00,2013-06-02 13:45:00,
2013-06-02 09:51:00,72.3,69.2,28.85,West,270,0.0,0.0,90,0.00,,---,0.04,VWS V14.00,2013-06-02 13:51:00,
2013-06-02 09:57:00,72.3,68.9,28.85,West,270,0.0,0.0,89,0.00,,---,0.04,VWS V14.00,2013-06-02 13:57:00,
2013-06-02 10:03:00,72.3,69.2,28.85,West,270,0.0,0.0,90,0.00,,---,0.04,VWS V14.00,2013-06-02 14:03:00,
2013-06-02 10:09:00,72.5,69.1,28.85,West,270,0.0,0.0,89,0.00,,---,0.04,VWS V14.00,2013-06-02 14:09:00,
2013-06-02 10:15:00,72.7,69.3,28.85,West,270,0.0,0.0,89,0.00,,---,0.04,VWS V14.00,2013-06-02 14:15:00,
2013-06-02 10:21:00,72.7,68.9,28.85,SW,225,0.0,0.0,88,0.00,,---,0.04,VWS V14.00,2013-06-02 14:21:00,
2013-06-02 10:27:00,72.9,69.1,28.85,West,270,0.0,0.0,88,0.00,,---,0.04,VWS V14.00,2013-06-02 14:27:00,
2013-06-02 10:33:00,73.0,68.9,28.85,West,270,0.0,2.9,87,0.00,,---,0.04,VWS V14.00,2013-06-02 14:33:00,
2013-06-02 10:39:00,73.0,68.9,28.85,NW,315,0.0,2.9,87,0.00,,---,0.04,VWS V14.00,2013-06-02 14:39:00,
2013-06-02 10:45:00,73.0,69.3,28.85,NW,315,0.0,2.9,88,0.00,,---,0.04,VWS V14.00,2013-06-02 14:45:00,
2013-06-02 10:51:00,72.9,69.1,28.85,West,270,0.0,2.9,88,0.04,,---,0.08,VWS V14.00,2013-06-02 14:51:00,
2013-06-02 10:57:00,72.7,68.9,28.85,WNW,292,0.0,2.9,88,0.04,,---,0.08,VWS V14.00,2013-06-02 14:57:00,
2013-06-02 11:03:00,72.5,69.1,28.85,WNW,292,0.0,0.0,89,0.04,,---,0.08,VWS V14.00,2013-06-02 15:03:00,
2013-06-02 11:09:00,72.5,68.8,28.85,WNW,292,0.0,0.0,88,0.04,,---,0.08,VWS V14.00,2013-06-02 15:09:00,
2013-06-02 11:15:00,72.5,69.1,28.85,West,270,0.0,0.0,89,0.04,,---,0.08,VWS V14.00,2013-06-02 15:15:00,
2013-06-02 11:21:00,72.5,69.1,28.85,NNW,338,0.0,0.0,89,0.04,,---,0.08,VWS V14.00,2013-06-02 15:21:00,
2013-06-02 11:27:00,72.5,69.1,28.85,West,270,0.0,0.0,89,0.04,,---,0.08,VWS V14.00,2013-06-02 15:27:00,
2013-06-02 11:33:00,72.7,69.3,28.85,West,270,0.0,0.0,89,0.04,,---,0.08,VWS V14.00,2013-06-02 15:33:00,
2013-06-02 11:39:00,72.9,69.1,28.85,WSW,248,0.0,2.0,88,0.04,,---,0.08,VWS V14.00,2013-06-02 15:39:00,
2013-06-02 11:45:00,73.2,69.5,28.85,NNW,338,0.0,2.0,88,0.04,,---,0.08,VWS V14.00,2013-06-02 15:45:00,
2013-06-02 11:51:00,73.6,69.8,28.85,NNW,338,0.0,2.0,88,0.04,,---,0.08,VWS V14.00,2013-06-02 15:51:00,
2013-06-02 11:57:00,73.8,69.7,28.85,NW,315,0.0,2.0,87,0.04,,---,0.08,VWS V14.00,2013-06-02 15:57:00,
2013-06-02 12:03:00,73.9,69.5,28.85,NE,45,0.0,0.0,86,0.00,,---,0.08,VWS V14.00,2013-06-02 16:03:00,
2013-06-02 12:10:00,74.3,69.8,28.85,East,90,0.0,0.0,86,0.00,,---,0.08,VWS V14.00,2013-06-02 16:10:00,
2013-06-02 12:16:00,75.0,70.2,28.85,East,90,0.0,1.1,85,0.00,,---,0.08,VWS V14.00,2013-06-02 16:16:00,
2013-06-02 12:22:00,75.6,70.7,28.85,East,90,0.0,1.1,85,0.00,,---,0.08,VWS V14.00,2013-06-02 16:22:00,
2013-06-02 12:28:00,75.7,69.9,28.85,NW,315,0.0,1.6,82,0.00,,---,0.08,VWS V14.00,2013-06-02 16:28:00,
2013-06-02 12:34:00,75.9,70.4,28.85,North,0,0.0,1.6,83,0.00,,---,0.08,VWS V14.00,2013-06-02 16:34:00,
2013-06-02 12:40:00,76.5,70.6,28.82,NW,315,0.9,1.6,82,0.00,,---,0.08,VWS V14.00,2013-06-02 16:40:00,
2013-06-02 12:46:00,76.6,70.7,28.82,ENE,68,0.0,1.6,82,0.00,,---,0.08,VWS V14.00,2013-06-02 16:46:00,
2013-06-02 12:52:00,76.6,70.4,28.82,East,90,0.0,1.6,81,0.00,,---,0.08,VWS V14.00,2013-06-02 16:52:00,
2013-06-02 12:58:00,76.5,70.2,28.85,South,180,0.0,1.6,81,0.00,,---,0.08,VWS V14.00,2013-06-02 16:58:00,
2013-06-02 13:04:00,76.6,70.4,28.85,WSW,248,0.0,0.0,81,0.00,,---,0.08,VWS V14.00,2013-06-02 17:04:00,
2013-06-02 13:10:00,77.4,70.7,28.85,North,0,0.0,0.0,80,0.00,,---,0.08,VWS V14.00,2013-06-02 17:10:00,
2013-06-02 13:16:00,77.4,70.3,28.82,ESE,112,0.0,0.0,79,0.00,,---,0.08,VWS V14.00,2013-06-02 17:16:00,
2013-06-02 13:22:00,77.0,70.0,28.82,NE,45,0.0,0.0,79,0.00,,---,0.08,VWS V14.00,2013-06-02 17:22:00,
2013-06-02 13:28:00,76.6,70.4,28.82,NE,45,0.0,0.0,81,0.00,,---,0.08,VWS V14.00,2013-06-02 17:28:00,
2013-06-02 13:34:00,77.4,71.1,28.82,NE,45,0.0,0.0,81,0.00,,---,0.08,VWS V14.00,2013-06-02 17:34:00,
2013-06-02 13:40:00,78.3,71.2,28.82,ESE,112,2.0,2.0,79,0.00,,---,0.08,VWS V14.00,2013-06-02 17:40:00,
2013-06-02 13:46:00,78.1,70.7,28.82,East,90,0.0,2.5,78,0.00,,---,0.08,VWS V14.00,2013-06-02 17:46:00,
2013-06-02 13:52:00,78.1,71.0,28.82,East,90,0.9,2.5,79,0.00,,---,0.08,VWS V14.00,2013-06-02 17:52:00,
2013-06-02 13:58:00,78.1,71.0,28.82,East,90,0.0,2.5,79,0.00,,---,0.08,VWS V14.00,2013-06-02 17:58:00,
2013-06-02 14:04:00,78.4,71.4,28.82,East,90,0.0,1.6,79,0.00,,---,0.08,VWS V14.00,2013-06-02 18:04:00,
2013-06-02 14:10:00,78.8,71.7,28.79,East,90,0.0,1.6,79,0.00,,---,0.08,VWS V14.00,2013-06-02 18:10:00,
2013-06-02 14:16:00,79.0,71.9,28.79,East,90,0.0,1.6,79,0.00,,---,0.08,VWS V14.00,2013-06-02 18:16:00,
2013-06-02 14:22:00,79.0,71.5,28.79,East,90,0.0,1.6,78,0.00,,---,0.08,VWS V14.00,2013-06-02 18:22:00,
2013-06-02 14:28:00,79.0,71.9,28.79,ENE,68,0.0,1.6,79,0.00,,---,0.08,VWS V14.00,2013-06-02 18:28:00,
2013-06-02 14:34:00,78.8,71.4,28.79,East,90,0.0,1.6,78,0.00,,---,0.08,VWS V14.00,2013-06-02 18:34:00,
2013-06-02 14:40:00,78.8,71.4,28.79,North,0,0.0,1.6,78,0.00,,---,0.08,VWS V14.00,2013-06-02 18:40:00,
2013-06-02 14:46:00,78.6,71.6,28.79,ENE,68,0.0,1.6,79,0.00,,---,0.08,VWS V14.00,2013-06-02 18:46:00,
2013-06-02 14:52:00,78.6,71.6,28.79,North,0,0.0,1.6,79,0.00,,---,0.08,VWS V14.00,2013-06-02 18:52:00,
2013-06-02 14:58:00,78.8,71.7,28.79,North,0,0.0,1.6,79,0.00,,---,0.08,VWS V14.00,2013-06-02 18:58:00,
2013-06-02 15:04:00,78.6,71.6,28.79,East,90,0.0,0.0,79,0.00,,---,0.08,VWS V14.00,2013-06-02 19:04:00,
2013-06-02 15:10:00,78.4,71.4,28.79,NE,45,0.0,0.0,79,0.00,,---,0.08,VWS V14.00,2013-06-02 19:10:00,
2013-06-02 15:16:00,78.4,71.4,28.79,NE,45,0.0,0.0,79,0.00,,---,0.08,VWS V14.00,2013-06-02 19:16:00,
2013-06-02 15:22:00,78.4,71.4,28.79,NE,45,0.0,0.0,79,0.00,,---,0.08,VWS V14.00,2013-06-02 19:22:00,
2013-06-02 15:28:00,78.3,71.6,28.79,WNW,292,2.5,2.5,80,0.05,,---,0.13,VWS V14.00,2013-06-02 19:28:00,
2013-06-02 15:34:00,77.7,71.4,28.79,NE,45,0.0,4.7,81,0.09,,---,0.17,VWS V14.00,2013-06-02 19:34:00,
2013-06-02 15:40:00,77.4,71.4,28.76,NE,45,0.0,4.7,82,0.09,,---,0.17,VWS V14.00,2013-06-02 19:40:00,
2013-06-02 15:46:00,77.2,71.3,28.76,NE,45,0.0,4.7,82,0.13,,---,0.21,VWS V14.00,2013-06-02 19:46:00,
2013-06-02 15:52:00,77.2,71.3,28.76,NE,45,0.0,4.7,82,0.13,,---,0.21,VWS V14.00,2013-06-02 19:52:00,
2013-06-02 15:58:00,77.2,71.6,28.76,East,90,0.0,4.7,83,0.13,,---,0.21,VWS V14.00,2013-06-02 19:58:00,
2013-06-02 16:04:00,77.0,71.1,28.76,East,90,0.0,2.2,82,0.13,,---,0.21,VWS V14.00,2013-06-02 20:04:00,
2013-06-02 16:10:00,76.8,71.3,28.79,NW,315,0.0,2.2,83,0.13,,---,0.21,VWS V14.00,2013-06-02 20:10:00,
2013-06-02 16:16:00,76.6,71.1,28.79,East,90,0.0,2.2,83,0.13,,---,0.21,VWS V14.00,2013-06-02 20:16:00,
2013-06-02 16:22:00,77.0,71.8,28.79,SE,135,0.0,2.2,84,0.13,,---,0.21,VWS V14.00,2013-06-02 20:22:00,
2013-06-02 16:28:00,76.8,71.6,28.79,ENE,68,2.7,2.7,84,0.13,,---,0.21,VWS V14.00,2013-06-02 20:28:00,
2013-06-02 16:34:00,76.6,71.4,28.79,SE,135,2.7,3.1,84,0.13,,---,0.21,VWS V14.00,2013-06-02 20:34:00,
2013-06-02 16:40:00,76.1,70.6,28.76,South,180,2.5,3.4,83,0.13,,---,0.21,VWS V14.00,2013-06-02 20:40:00,
2013-06-02 16:46:00,75.9,70.7,28.76,East,90,2.5,3.4,84,0.13,,---,0.21,VWS V14.00,2013-06-02 20:46:00,
2013-06-02 16:52:00,75.4,70.2,28.76,ESE,112,0.0,3.4,84,0.13,,---,0.21,VWS V14.00,2013-06-02 20:52:00,
2013-06-02 16:58:00,75.2,70.4,28.76,East,90,1.3,3.4,85,0.17,,---,0.25,VWS V14.00,2013-06-02 20:58:00,
2013-06-02 17:05:00,74.8,70.0,28.76,NE,45,1.1,2.7,85,0.12,,---,0.33,VWS V14.00,2013-06-02 21:05:00,
2013-06-02 17:11:00,74.5,70.0,28.76,NE,45,0.0,2.7,86,0.25,,---,0.46,VWS V14.00,2013-06-02 21:11:00,
2013-06-02 17:17:00,74.3,69.8,28.76,West,270,0.0,2.7,86,0.25,,---,0.46,VWS V14.00,2013-06-02 21:17:00,
2013-06-02 17:23:00,73.9,69.8,28.76,WSW,248,2.9,2.9,87,0.33,,---,0.54,VWS V14.00,2013-06-02 21:23:00,
2013-06-02 17:29:00,73.8,70.0,28.79,East,90,1.6,2.9,88,0.46,,---,0.67,VWS V14.00,2013-06-02 21:29:00,
2013-06-02 17:35:00,73.6,69.8,28.79,NW,315,1.6,2.9,88,0.58,,---,0.79,VWS V14.00,2013-06-02 21:35:00,
2013-06-02 17:41:00,73.4,69.6,28.76,NE,45,0.0,2.9,88,0.58,,---,0.79,VWS V14.00,2013-06-02 21:41:00,
2013-06-02 17:47:00,73.4,69.6,28.76,NE,45,1.6,2.9,88,0.58,,---,0.79,VWS V14.00,2013-06-02 21:47:00,
2013-06-02 17:53:00,73.2,69.8,28.76,NE,45,0.0,2.9,89,0.58,,---,0.79,VWS V14.00,2013-06-02 21:53:00,
2013-06-02 17:59:00,73.2,69.8,28.76,SSW,202,0.0,2.9,89,0.58,,---,0.79,VWS V14.00,2013-06-02 21:59:00,
2013-06-02 18:05:00,73.0,69.9,28.76,SSW,202,0.0,0.0,90,0.58,,---,0.83,VWS V14.00,2013-06-02 22:05:00,
2013-06-02 18:11:00,73.0,69.9,28.76,SSW,202,0.0,0.0,90,0.58,,---,0.83,VWS V14.00,2013-06-02 22:11:00,
2013-06-02 18:17:00,73.0,69.9,28.76,NNE,22,0.0,2.2,90,0.58,,---,0.83,VWS V14.00,2013-06-02 22:17:00,
2013-06-02 18:23:00,73.0,69.9,28.76,NNE,22,1.1,4.3,90,0.58,,---,0.83,VWS V14.00,2013-06-02 22:23:00,
2013-06-02 18:29:00,73.0,69.9,28.76,SW,225,0.0,4.3,90,0.58,,---,0.83,VWS V14.00,2013-06-02 22:29:00,
2013-06-02 18:35:00,73.0,69.9,28.76,NW,315,0.0,4.3,90,0.58,,---,0.83,VWS V14.00,2013-06-02 22:35:00,
2013-06-02 18:41:00,72.9,69.8,28.79,WNW,292,0.0,4.3,90,0.58,,---,0.83,VWS V14.00,2013-06-02 22:41:00,
2013-06-02 18:47:00,72.7,69.6,28.79,South,180,2.7,4.9,90,0.58,,---,0.83,VWS V14.00,2013-06-02 22:47:00,
2013-06-02 18:53:00,72.5,69.1,28.79,ESE,112,2.5,4.9,89,0.58,,---,0.83,VWS V14.00,2013-06-02 22:53:00,
2013-06-02 18:59:00,72.5,69.1,28.76,ESE,112,2.5,4.9,89,0.58,,---,0.83,VWS V14.00,2013-06-02 22:59:00,
2013-06-02 19:05:00,72.5,69.1,28.76,ESE,112,2.5,2.5,89,0.04,,---,0.83,VWS V14.00,2013-06-02 23:05:00,
2013-06-02 19:11:00,72.7,69.3,28.76,ESE,112,2.5,2.5,89,0.04,,---,0.83,VWS V14.00,2013-06-02 23:11:00,
2013-06-02 19:17:00,72.7,69.3,28.76,ESE,112,2.5,2.5,89,0.04,,---,0.83,VWS V14.00,2013-06-02 23:17:00,
2013-06-02 19:23:00,72.7,69.6,28.76,ESE,112,2.5,2.5,90,0.04,,---,0.83,VWS V14.00,2013-06-02 23:23:00,
2013-06-02 19:29:00,72.7,69.3,28.76,ESE,112,2.5,2.5,89,0.04,,---,0.83,VWS V14.00,2013-06-02 23:29:00,
2013-06-02 19:35:00,72.5,69.1,28.76,ESE,112,2.5,2.5,89,0.04,,---,0.83,VWS V14.00,2013-06-02 23:35:00,
2013-06-02 19:41:00,72.3,68.9,28.76,West,270,0.0,2.5,89,0.04,,---,0.83,VWS V14.00,2013-06-02 23:41:00,
2013-06-02 19:47:00,72.3,69.2,28.76,WNW,292,0.0,2.5,90,0.04,,---,0.83,VWS V14.00,2013-06-02 23:47:00,
2013-06-02 19:53:00,72.3,69.2,28.76,WNW,292,0.0,2.5,90,0.04,,---,0.83,VWS V14.00,2013-06-02 23:53:00,
2013-06-02 19:59:00,72.3,69.6,28.76,WNW,292,0.0,2.5,91,0.04,,---,0.83,VWS V14.00,2013-06-02 23:59:00,
2013-06-02 20:05:00,72.1,69.4,28.76,WNW,292,0.0,0.0,91,0.00,,---,0.83,VWS V14.00,2013-06-03 00:05:00,
2013-06-02 20:11:00,72.1,69.4,28.76,WNW,292,0.0,0.0,91,0.00,,---,0.83,VWS V14.00,2013-06-03 00:11:00,
2013-06-02 20:17:00,72.1,69.4,28.76,WNW,292,0.0,0.0,91,0.00,,---,0.83,VWS V14.00,2013-06-03 00:17:00,
2013-06-02 20:23:00,72.0,69.2,28.76,WNW,292,0.0,0.0,91,0.00,,---,0.83,VWS V14.00,2013-06-03 00:23:00,
2013-06-02 20:29:00,72.0,69.2,28.76,WNW,292,0.0,0.0,91,0.00,,---,0.83,VWS V14.00,2013-06-03 00:29:00,
2013-06-02 20:35:00,71.8,69.0,28.76,WNW,292,0.0,0.0,91,0.00,,---,0.83,VWS V14.00,2013-06-03 00:35:00,
2013-06-02 20:41:00,71.8,69.3,28.76,WNW,292,0.0,0.0,92,0.00,,---,0.83,VWS V14.00,2013-06-03 00:41:00,
2013-06-02 20:47:00,71.8,69.3,28.76,WNW,292,0.0,0.0,92,0.00,,---,0.83,VWS V14.00,2013-06-03 00:47:00,
2013-06-02 20:53:00,71.8,69.3,28.76,WNW,292,0.0,0.0,92,0.00,,---,0.83,VWS V14.00,2013-06-03 00:53:00,
2013-06-02 20:59:00,71.6,69.2,28.79,WNW,292,0.0,0.0,92,0.00,,---,0.83,VWS V14.00,2013-06-03 00:59:00,
2013-06-02 21:05:00,71.6,69.2,28.79,WNW,292,0.0,0.0,92,0.00,,---,0.83,VWS V14.00,2013-06-03 01:05:00,
2013-06-02 21:11:00,71.6,69.2,28.79,WNW,292,0.0,0.0,92,0.00,,---,0.83,VWS V14.00,2013-06-03 01:11:00,
2013-06-02 21:17:00,71.6,69.2,28.79,WNW,292,0.0,0.0,92,0.00,,---,0.83,VWS V14.00,2013-06-03 01:17:00,
2013-06-02 21:23:00,71.4,69.3,28.79,West,270,0.0,0.0,93,0.00,,---,0.83,VWS V14.00,2013-06-03 01:23:00,
2013-06-02 21:29:00,71.4,69.3,28.79,West,270,0.0,0.0,93,0.00,,---,0.83,VWS V14.00,2013-06-03 01:29:00,
2013-06-02 21:35:00,71.4,69.3,28.79,West,270,0.0,0.0,93,0.00,,---,0.83,VWS V14.00,2013-06-03 01:35:00,
2013-06-02 21:41:00,71.4,69.3,28.79,West,270,0.0,0.0,93,0.00,,---,0.83,VWS V14.00,2013-06-03 01:41:00,
2013-06-02 21:47:00,71.2,69.1,28.79,West,270,0.0,0.0,93,0.00,,---,0.83,VWS V14.00,2013-06-03 01:47:00,
2013-06-02 21:53:00,71.1,68.9,28.79,West,270,0.0,0.0,93,0.00,,---,0.83,VWS V14.00,2013-06-03 01:53:00,
2013-06-02 21:59:00,71.1,68.9,28.79,West,270,0.0,0.0,93,0.00,,---,0.83,VWS V14.00,2013-06-03 01:59:00,
2013-06-02 22:05:00,71.1,68.9,28.79,West,270,0.0,0.0,93,0.00,,---,0.83,VWS V14.00,2013-06-03 02:05:00,
2013-06-02 22:11:00,70.9,68.8,28.79,West,270,0.0,0.0,93,0.00,,---,0.83,VWS V14.00,2013-06-03 02:11:00,
2013-06-02 22:17:00,70.7,68.6,28.79,West,270,0.0,0.0,93,0.00,,---,0.83,VWS V14.00,2013-06-03 02:17:00,
2013-06-02 22:23:00,70.7,68.6,28.79,West,270,0.0,0.0,93,0.00,,---,0.83,VWS V14.00,2013-06-03 02:23:00,
2013-06-02 22:29:00,70.7,68.9,28.79,West,270,0.0,0.0,94,0.00,,---,0.83,VWS V14.00,2013-06-03 02:29:00,
2013-06-02 22:35:00,70.7,68.9,28.79,West,270,0.0,0.0,94,0.00,,---,0.83,VWS V14.00,2013-06-03 02:35:00,
2013-06-02 22:42:00,70.7,68.9,28.79,West,270,0.0,0.0,94,0.00,,---,0.83,VWS V14.00,2013-06-03 02:42:00,
2013-06-02 22:48:00,70.7,68.9,28.79,West,270,0.0,0.0,94,0.00,,---,0.83,VWS V14.00,2013-06-03 02:48:00,
2013-06-02 22:54:00,70.5,68.7,28.79,West,270,0.0,0.0,94,0.00,,---,0.83,VWS V14.00,2013-06-03 02:54:00,
2013-06-02 23:00:00,70.5,68.7,28.79,West,270,0.0,0.0,94,0.00,,---,0.83,VWS V14.00,2013-06-03 03:00:00,
2013-06-02 23:06:00,70.5,68.7,28.79,West,270,0.0,0.0,94,0.00,,---,0.83,VWS V14.00,2013-06-03 03:06:00,
2013-06-02 23:12:00,70.5,69.0,28.76,West,270,0.0,0.0,95,0.00,,---,0.83,VWS V14.00,2013-06-03 03:12:00,
2013-06-02 23:18:00,70.5,69.0,28.76,West,270,0.0,0.0,95,0.00,,---,0.83,VWS V14.00,2013-06-03 03:18:00,
2013-06-02 23:24:00,70.3,68.8,28.76,West,270,0.0,0.0,95,0.00,,---,0.83,VWS V14.00,2013-06-03 03:24:00,
2013-06-02 23:30:00,70.3,68.8,28.76,West,270,0.0,0.0,95,0.00,,---,0.83,VWS V14.00,2013-06-03 03:30:00,
2013-06-02 23:36:00,70.3,68.8,28.76,West,270,0.0,0.0,95,0.00,,---,0.83,VWS V14.00,2013-06-03 03:36:00,
2013-06-02 23:42:00,70.2,68.7,28.76,West,270,0.0,0.0,95,0.00,,---,0.83,VWS V14.00,2013-06-03 03:42:00,
2013-06-02 23:48:00,70.2,68.7,28.76,West,270,0.0,0.0,95,0.00,,---,0.83,VWS V14.00,2013-06-03 03:48:00,
2013-06-02 23:54:00,70.0,68.5,28.76,West,270,0.0,0.0,95,0.00,,---,0.83,VWS V14.00,2013-06-03 03:54:00,